CSQ941 SPZO-SPGM

Flight info

Callsign CSQ941
Flight time 1h 31m
Altitude 20000
Route GAXUN DCT MLV T242 LIVAT DCT DALGI DCT LUVSO DCT
Aircraft SF34/M-SDFGR/S

Departure

Time 2026-05-06 18:25
Airport Alejandro Velasco Astete International Airport (SPZO)

Arrival

Time 2026-05-06 19:57
Airport Tingo Maria Airport (SPGM)
Time Latitude Longitude Altitude Speed Heading
2026-05-06 17:57 -13.53730 -71.94218 10812 ft 0 kts 113°
2026-05-06 18:04 -13.53737 -71.94222 10812 ft 5 kts 287°
2026-05-06 18:04 -13.53718 -71.94230 10812 ft 3 kts 343°
2026-05-06 18:05 -13.53658 -71.94359 10812 ft 37 kts 277°
2026-05-06 18:05 -13.53626 -71.94694 10822 ft 55 kts 276°
2026-05-06 18:05 -13.53587 -71.95117 10854 ft 60 kts 276°
2026-05-06 18:05 -13.53544 -71.95420 10859 ft 15 kts 332°
2026-05-06 18:06 -13.53508 -71.95429 10859 ft 0 kts 357°
2026-05-06 18:06 -13.53499 -71.95429 10866 ft 0 kts 16°
2026-05-06 18:06 -13.53496 -71.95428 10865 ft 0 kts
2026-05-06 18:21 -13.53487 -71.95427 10859 ft 0 kts
2026-05-06 18:21 -13.53486 -71.95427 10859 ft 0 kts
2026-05-06 18:24 -13.53471 -71.95425 10859 ft 13 kts
2026-05-06 18:24 -13.53422 -71.95406 10861 ft 1 kts 78°
2026-05-06 18:24 -13.53429 -71.95257 10862 ft 44 kts 95°
2026-05-06 18:24 -13.53492 -71.94692 10824 ft 114 kts 96°
2026-05-06 18:25 -13.53586 -71.93692 10791 ft 170 kts 96°
2026-05-06 18:25 -13.53733 -71.92320 10865 ft 212 kts 96°
2026-05-06 18:25 -13.53880 -71.90709 11246 ft 236 kts 96°
2026-05-06 18:25 -13.54149 -71.88992 11815 ft 251 kts 106°
2026-05-06 18:26 -13.54863 -71.87315 12319 ft 261 kts 119°
2026-05-06 18:26 -13.55618 -71.85594 13032 ft 269 kts 106°
2026-05-06 18:26 -13.56165 -71.83734 13617 ft 274 kts 108°
2026-05-06 18:26 -13.56845 -71.81880 13902 ft 280 kts 110°
2026-05-06 18:27 -13.57625 -71.80022 14161 ft 284 kts 113°
2026-05-06 18:27 -13.58331 -71.78127 14578 ft 283 kts 103°
2026-05-06 18:27 -13.58562 -71.76122 14994 ft 283 kts 90°
2026-05-06 18:27 -13.58353 -71.74121 15418 ft 282 kts 76°
2026-05-06 18:28 -13.57703 -71.72228 15846 ft 280 kts 63°
2026-05-06 18:28 -13.56653 -71.70548 16302 ft 279 kts 50°
2026-05-06 18:28 -13.55265 -71.69169 16773 ft 278 kts 37°
2026-05-06 18:28 -13.53607 -71.68155 17244 ft 278 kts 24°
2026-05-06 18:29 -13.51775 -71.67537 17662 ft 280 kts 15°
2026-05-06 18:29 -13.49909 -71.66888 17899 ft 284 kts 20°
2026-05-06 18:29 -13.47970 -71.66444 18138 ft 288 kts
2026-05-06 18:29 -13.45951 -71.66376 18387 ft 292 kts 356°
2026-05-06 18:30 -13.43938 -71.66696 18623 ft 295 kts 346°
2026-05-06 18:30 -13.41995 -71.67403 18844 ft 297 kts 335°
2026-05-06 18:30 -13.40210 -71.68473 19069 ft 298 kts 324°
2026-05-06 18:30 -13.38650 -71.69866 19306 ft 298 kts 313°
2026-05-06 18:31 -13.37366 -71.71541 19527 ft 298 kts 303°
2026-05-06 18:31 -13.36422 -71.73402 19760 ft 298 kts 292°
2026-05-06 18:31 -13.35813 -71.75465 19860 ft 298 kts 282°
2026-05-06 18:31 -13.35319 -71.77526 20089 ft 297 kts 286°
2026-05-06 18:32 -13.34758 -71.79570 20323 ft 297 kts 285°
2026-05-06 18:32 -13.34277 -71.81611 20558 ft 298 kts 283°
2026-05-06 18:32 -13.33774 -71.83671 20796 ft 298 kts 285°
2026-05-06 18:32 -13.33242 -71.85730 21019 ft 298 kts 285°
2026-05-06 18:33 -13.32741 -71.87799 21260 ft 298 kts 284°
2026-05-06 18:33 -13.32231 -71.89853 21496 ft 294 kts 285°
2026-05-06 18:33 -13.31722 -71.91866 21743 ft 288 kts 285°
2026-05-06 18:33 -13.31242 -71.93825 21985 ft 279 kts 285°
2026-05-06 18:34 -13.30769 -71.95720 22225 ft 267 kts 285°
2026-05-06 18:34 -13.30318 -71.97522 22455 ft 254 kts 285°
2026-05-06 18:34 -13.29896 -71.99235 22673 ft 240 kts 285°
2026-05-06 18:34 -13.29492 -72.00848 22904 ft 227 kts 285°
2026-05-06 18:35 -13.29110 -72.02373 23135 ft 214 kts 285°
2026-05-06 18:35 -13.28758 -72.03799 23356 ft 198 kts 285°
2026-05-06 18:35 -13.28429 -72.05117 23580 ft 182 kts 285°
2026-05-06 18:35 -13.28131 -72.06315 23762 ft 165 kts 285°
2026-05-06 18:36 -13.27857 -72.07411 23781 ft 159 kts 286°
2026-05-06 18:36 -13.27529 -72.08683 23032 ft 207 kts 285°
2026-05-06 18:36 -13.27143 -72.10260 22303 ft 247 kts 285°
2026-05-06 18:36 -13.26687 -72.12096 21599 ft 283 kts 285°
2026-05-06 18:37 -13.26169 -72.14159 21052 ft 310 kts 285°
2026-05-06 18:37 -13.25621 -72.16361 20628 ft 325 kts 285°
2026-05-06 18:37 -13.25054 -72.18633 20247 ft 332 kts 285°
2026-05-06 18:37 -13.24481 -72.20921 20131 ft 328 kts 285°
2026-05-06 18:38 -13.23919 -72.23170 20132 ft 324 kts 285°
2026-05-06 18:38 -13.23363 -72.25397 20132 ft 320 kts 285°
2026-05-06 18:38 -13.22812 -72.27598 20121 ft 319 kts 285°
2026-05-06 18:38 -13.22260 -72.29801 20122 ft 319 kts 284°
2026-05-06 18:39 -13.21711 -72.31992 20118 ft 319 kts 284°
2026-05-06 18:39 -13.21164 -72.34183 20118 ft 319 kts 284°
2026-05-06 18:39 -13.20609 -72.36390 20118 ft 319 kts 284°
2026-05-06 18:40 -13.19504 -72.40800 20124 ft 319 kts 284°
2026-05-06 18:40 -13.18951 -72.43008 20124 ft 319 kts 284°
2026-05-06 18:40 -13.18398 -72.45212 20123 ft 319 kts 284°
2026-05-06 18:40 -13.17843 -72.47419 20124 ft 319 kts 284°
2026-05-06 18:41 -13.17290 -72.49627 20121 ft 319 kts 284°
2026-05-06 18:41 -13.16737 -72.51820 20134 ft 319 kts 284°
2026-05-06 18:41 -13.16176 -72.54029 20141 ft 318 kts 287°
2026-05-06 18:41 -13.15129 -72.56015 20139 ft 318 kts 311°
2026-05-06 18:42 -13.13387 -72.57378 20135 ft 318 kts 335°
2026-05-06 18:42 -13.11252 -72.57903 20137 ft 317 kts 357°
2026-05-06 18:42 -13.09052 -72.58058 20138 ft 316 kts 351°
2026-05-06 18:42 -13.06951 -72.58671 20140 ft 317 kts 339°
2026-05-06 18:43 -13.04900 -72.59456 20139 ft 317 kts 341°
2026-05-06 18:43 -13.02781 -72.60085 20116 ft 317 kts 346°
2026-05-06 18:43 -13.00633 -72.60630 20115 ft 318 kts 346°
2026-05-06 18:43 -12.98505 -72.61248 20116 ft 318 kts 342°
2026-05-06 18:44 -12.96386 -72.61901 20112 ft 318 kts 344°
2026-05-06 18:44 -12.94243 -72.62489 20114 ft 319 kts 345°
2026-05-06 18:44 -12.92109 -72.63113 20114 ft 319 kts 343°
2026-05-06 18:44 -12.89976 -72.63746 20074 ft 319 kts 344°
2026-05-06 18:45 -12.87833 -72.64350 20072 ft 319 kts 345°
2026-05-06 18:45 -12.85705 -72.64973 20162 ft 316 kts 344°
2026-05-06 18:45 -12.83577 -72.65593 20080 ft 320 kts 345°
2026-05-06 18:45 -12.81426 -72.66207 20073 ft 320 kts 345°
2026-05-06 18:46 -12.79287 -72.66833 20067 ft 320 kts 344°
2026-05-06 18:46 -12.77146 -72.67451 20068 ft 320 kts 345°
2026-05-06 18:46 -12.75007 -72.68068 20036 ft 320 kts 345°
2026-05-06 18:46 -12.72867 -72.68690 20036 ft 319 kts 345°
2026-05-06 18:47 -12.70726 -72.69307 20038 ft 319 kts 345°
2026-05-06 18:47 -12.68586 -72.69926 20039 ft 319 kts 345°
2026-05-06 18:47 -12.66472 -72.70538 20039 ft 320 kts 345°
2026-05-06 18:47 -12.64332 -72.71156 20040 ft 319 kts 345°
2026-05-06 18:48 -12.62191 -72.71776 20012 ft 320 kts 345°
2026-05-06 18:48 -12.60049 -72.72394 20010 ft 320 kts 345°
2026-05-06 18:48 -12.57910 -72.73012 20010 ft 320 kts 345°
2026-05-06 18:48 -12.55767 -72.73632 20013 ft 320 kts 344°
2026-05-06 18:49 -12.53626 -72.74249 20006 ft 319 kts 345°
2026-05-06 18:49 -12.51491 -72.74867 20005 ft 319 kts 345°
2026-05-06 18:49 -12.49352 -72.75484 20006 ft 319 kts 345°
2026-05-06 18:49 -12.47214 -72.76101 19986 ft 319 kts 345°
2026-05-06 18:50 -12.45078 -72.76718 19988 ft 319 kts 345°
2026-05-06 18:50 -12.42937 -72.77336 19988 ft 319 kts 345°
2026-05-06 18:50 -12.40795 -72.77954 19988 ft 319 kts 345°
2026-05-06 18:50 -12.38658 -72.78570 19988 ft 319 kts 345°
2026-05-06 18:51 -12.36548 -72.79179 19985 ft 319 kts 345°
2026-05-06 18:51 -12.34408 -72.79796 19982 ft 319 kts 345°
2026-05-06 18:51 -12.32268 -72.80413 19982 ft 319 kts 344°
2026-05-06 18:51 -12.30132 -72.81029 19982 ft 319 kts 345°
2026-05-06 18:52 -12.27996 -72.81645 19969 ft 319 kts 345°
2026-05-06 18:52 -12.25860 -72.82260 19969 ft 319 kts 345°
2026-05-06 18:52 -12.23720 -72.82877 19969 ft 319 kts 345°
2026-05-06 18:52 -12.21583 -72.83493 19958 ft 319 kts 345°
2026-05-06 18:53 -12.19449 -72.84107 19952 ft 319 kts 345°
2026-05-06 18:53 -12.17338 -72.84715 19952 ft 319 kts 345°
2026-05-06 18:53 -12.15202 -72.85331 19952 ft 319 kts 345°
2026-05-06 18:53 -12.13066 -72.85945 19952 ft 319 kts 345°
2026-05-06 18:54 -12.10932 -72.86560 19952 ft 319 kts 345°
2026-05-06 18:54 -12.08797 -72.87174 19952 ft 319 kts 345°
2026-05-06 18:54 -12.06666 -72.87788 19944 ft 319 kts 345°
2026-05-06 18:54 -12.04531 -72.88402 19943 ft 319 kts 345°
2026-05-06 18:55 -12.02400 -72.89015 19946 ft 318 kts 345°
2026-05-06 18:55 -12.00262 -72.89630 19945 ft 318 kts 345°
2026-05-06 18:55 -11.98128 -72.90244 19945 ft 318 kts 345°
2026-05-06 18:55 -11.95989 -72.90858 19945 ft 319 kts 345°
2026-05-06 18:56 -11.93854 -72.91472 19937 ft 319 kts 345°
2026-05-06 18:56 -11.91750 -72.92077 19936 ft 318 kts 345°
2026-05-06 18:56 -11.89619 -72.92689 19936 ft 318 kts 345°
2026-05-06 18:56 -11.87485 -72.93303 19936 ft 318 kts 345°
2026-05-06 18:57 -11.85385 -72.93994 19933 ft 317 kts 335°
2026-05-06 18:57 -11.83580 -72.95286 19934 ft 318 kts 320°
2026-05-06 18:57 -11.81893 -72.96742 19933 ft 318 kts 322°
2026-05-06 18:57 -11.80100 -72.98079 19925 ft 319 kts 326°
2026-05-06 18:58 -11.78267 -72.99348 19927 ft 319 kts 326°
2026-05-06 18:58 -11.76471 -73.00683 19927 ft 319 kts 323°
2026-05-06 18:58 -11.74690 -73.02040 19928 ft 319 kts 324°
2026-05-06 18:58 -11.72870 -73.03344 19928 ft 319 kts 325°
2026-05-06 18:59 -11.71074 -73.04683 19928 ft 320 kts 323°
2026-05-06 18:59 -11.69281 -73.06021 19928 ft 320 kts 324°
2026-05-06 18:59 -11.67472 -73.07336 19923 ft 320 kts 324°
2026-05-06 18:59 -11.65676 -73.08674 19923 ft 320 kts 324°
2026-05-06 19:00 -11.63872 -73.10006 19934 ft 320 kts 324°
2026-05-06 19:00 -11.62065 -73.11333 19934 ft 320 kts 324°
2026-05-06 19:00 -11.60267 -73.12667 19934 ft 320 kts 324°
2026-05-06 19:00 -11.59069 -73.13549 19935 ft 320 kts 324°
2026-05-06 19:01 -11.56651 -73.15331 19935 ft 320 kts 324°
2026-05-06 19:01 -11.54849 -73.16661 19935 ft 320 kts 324°
2026-05-06 19:01 -11.53042 -73.17993 19925 ft 321 kts 324°
2026-05-06 19:01 -11.51236 -73.19324 19925 ft 321 kts 324°
2026-05-06 19:02 -11.49428 -73.20659 19925 ft 321 kts 324°
2026-05-06 19:02 -11.47617 -73.21991 19925 ft 321 kts 324°
2026-05-06 19:02 -11.45811 -73.23324 19941 ft 321 kts 324°
2026-05-06 19:02 -11.44001 -73.24656 19942 ft 321 kts 324°
2026-05-06 19:03 -11.42192 -73.25989 19946 ft 321 kts 324°
2026-05-06 19:03 -11.40384 -73.27323 19935 ft 321 kts 324°
2026-05-06 19:03 -11.38573 -73.28654 19935 ft 321 kts 324°
2026-05-06 19:03 -11.36790 -73.29970 19936 ft 321 kts 324°
2026-05-06 19:04 -11.34955 -73.31320 19931 ft 321 kts 324°
2026-05-06 19:04 -11.33165 -73.32637 19931 ft 322 kts 324°
2026-05-06 19:04 -11.31349 -73.33974 19931 ft 322 kts 324°
2026-05-06 19:04 -11.29533 -73.35310 19931 ft 322 kts 324°
2026-05-06 19:05 -11.27716 -73.36647 19928 ft 322 kts 324°
2026-05-06 19:05 -11.25903 -73.37982 19928 ft 322 kts 324°
2026-05-06 19:05 -11.24086 -73.39317 19928 ft 322 kts 324°
2026-05-06 19:05 -11.22275 -73.40650 19929 ft 322 kts 324°
2026-05-06 19:06 -11.20459 -73.41984 19931 ft 322 kts 324°
2026-05-06 19:06 -11.19233 -73.42887 19930 ft 322 kts 324°
2026-05-06 19:06 -11.16827 -73.44654 19931 ft 322 kts 324°
2026-05-06 19:06 -11.15012 -73.45989 19930 ft 322 kts 324°
2026-05-06 19:07 -11.13194 -73.47325 19919 ft 322 kts 324°
2026-05-06 19:07 -11.11968 -73.48225 19919 ft 322 kts 324°
2026-05-06 19:07 -11.10176 -73.49543 19920 ft 322 kts 324°
2026-05-06 19:07 -11.08358 -73.50878 19920 ft 322 kts 324°
2026-05-06 19:08 -11.06537 -73.52215 19931 ft 322 kts 324°
2026-05-06 19:08 -11.04723 -73.53547 19931 ft 322 kts 324°
2026-05-06 19:08 -11.02904 -73.54884 19931 ft 322 kts 324°
2026-05-06 19:08 -11.01089 -73.56214 19931 ft 322 kts 324°
2026-05-06 19:09 -10.99275 -73.57546 19929 ft 322 kts 324°
2026-05-06 19:09 -10.97453 -73.58884 19929 ft 322 kts 324°
2026-05-06 19:09 -10.95638 -73.60215 19931 ft 322 kts 324°
2026-05-06 19:09 -10.93817 -73.61551 19929 ft 322 kts 324°
2026-05-06 19:10 -10.92105 -73.62805 19922 ft 287 kts 324°
2026-05-06 19:10 -10.90536 -73.63957 19916 ft 284 kts 324°
2026-05-06 19:10 -10.88885 -73.65173 19914 ft 298 kts 324°
2026-05-06 19:10 -10.87244 -73.66371 19931 ft 286 kts 324°
2026-05-06 19:11 -10.85650 -73.67542 19924 ft 280 kts 324°
2026-05-06 19:11 -10.84079 -73.68693 19921 ft 277 kts 324°
2026-05-06 19:11 -10.82548 -73.69815 19922 ft 275 kts 324°
2026-05-06 19:11 -10.80997 -73.70952 19923 ft 275 kts 324°
2026-05-06 19:12 -10.79443 -73.72090 19923 ft 274 kts 324°
2026-05-06 19:12 -10.77894 -73.73225 19923 ft 274 kts 324°
2026-05-06 19:12 -10.76347 -73.74359 19923 ft 274 kts 324°
2026-05-06 19:12 -10.74799 -73.75491 19923 ft 274 kts 324°
2026-05-06 19:13 -10.73246 -73.76630 19921 ft 274 kts 324°
2026-05-06 19:13 -10.71919 -73.77989 19922 ft 272 kts 302°
2026-05-06 19:13 -10.70981 -73.79657 19935 ft 272 kts 299°
2026-05-06 19:13 -10.70003 -73.81281 19934 ft 273 kts 304°
2026-05-06 19:14 -10.68908 -73.82860 19934 ft 273 kts 305°
2026-05-06 19:14 -10.67847 -73.84460 19934 ft 273 kts 302°
2026-05-06 19:14 -10.66797 -73.86109 19934 ft 273 kts 304°
2026-05-06 19:14 -10.65721 -73.87712 19935 ft 281 kts 304°
2026-05-06 19:15 -10.64608 -73.89412 19939 ft 296 kts 303°
2026-05-06 19:15 -10.63463 -73.91167 19949 ft 306 kts 304°
2026-05-06 19:15 -10.62259 -73.92984 19949 ft 313 kts 304°
2026-05-06 19:15 -10.61046 -73.94839 19970 ft 317 kts 303°
2026-05-06 19:16 -10.59819 -73.96705 19965 ft 319 kts 304°
2026-05-06 19:16 -10.58579 -73.98587 19965 ft 321 kts 303°
2026-05-06 19:16 -10.57339 -74.00478 19964 ft 322 kts 303°
2026-05-06 19:16 -10.56096 -74.02367 19966 ft 322 kts 303°
2026-05-06 19:17 -10.54853 -74.04254 19965 ft 321 kts 303°
2026-05-06 19:17 -10.53612 -74.06144 19966 ft 321 kts 303°
2026-05-06 19:17 -10.52367 -74.08033 19981 ft 321 kts 303°
2026-05-06 19:17 -10.51124 -74.09924 19981 ft 322 kts 303°
2026-05-06 19:18 -10.49876 -74.11820 19977 ft 322 kts 303°
2026-05-06 19:18 -10.48627 -74.13716 19980 ft 323 kts 303°
2026-05-06 19:18 -10.47395 -74.15587 19978 ft 323 kts 303°
2026-05-06 19:18 -10.46144 -74.17490 19981 ft 323 kts 303°
2026-05-06 19:19 -10.44893 -74.19385 19980 ft 323 kts 303°
2026-05-06 19:19 -10.43643 -74.21285 19980 ft 323 kts 303°
2026-05-06 19:19 -10.42394 -74.23180 19997 ft 323 kts 303°
2026-05-06 19:19 -10.41144 -74.25078 19998 ft 323 kts 303°
2026-05-06 19:20 -10.39893 -74.26975 19996 ft 323 kts 303°
2026-05-06 19:20 -10.38644 -74.28869 19997 ft 323 kts 303°
2026-05-06 19:20 -10.37397 -74.30763 19997 ft 323 kts 303°
2026-05-06 19:20 -10.36144 -74.32663 19998 ft 323 kts 303°
2026-05-06 19:21 -10.34892 -74.34559 19994 ft 323 kts 303°
2026-05-06 19:21 -10.33644 -74.36452 19995 ft 323 kts 303°
2026-05-06 19:21 -10.32393 -74.38348 19998 ft 323 kts 303°
2026-05-06 19:21 -10.31142 -74.40244 19998 ft 323 kts 303°
2026-05-06 19:22 -10.29891 -74.42140 19997 ft 323 kts 303°
2026-05-06 19:22 -10.28640 -74.44036 19997 ft 323 kts 303°
2026-05-06 19:22 -10.27387 -74.45931 19997 ft 323 kts 303°
2026-05-06 19:22 -10.26137 -74.47826 19997 ft 324 kts 303°
2026-05-06 19:23 -10.24884 -74.49725 19996 ft 324 kts 303°
2026-05-06 19:23 -10.23645 -74.51598 19983 ft 324 kts 303°
2026-05-06 19:23 -10.22389 -74.53501 19983 ft 324 kts 303°
2026-05-06 19:23 -10.21129 -74.55408 19983 ft 325 kts 303°
2026-05-06 19:24 -10.19872 -74.57310 19983 ft 325 kts 303°
2026-05-06 19:24 -10.18611 -74.59218 19978 ft 325 kts 303°
2026-05-06 19:24 -10.17350 -74.61124 19978 ft 326 kts 303°
2026-05-06 19:24 -10.16088 -74.63034 19978 ft 325 kts 303°
2026-05-06 19:25 -10.14824 -74.64947 19965 ft 326 kts 303°
2026-05-06 19:25 -10.13561 -74.66856 19961 ft 326 kts 303°
2026-05-06 19:25 -10.12298 -74.68763 19962 ft 326 kts 303°
2026-05-06 19:25 -10.11032 -74.70677 19961 ft 326 kts 303°
2026-05-06 19:26 -10.09769 -74.72588 19958 ft 325 kts 303°
2026-05-06 19:26 -10.08506 -74.74494 19959 ft 325 kts 303°
2026-05-06 19:26 -10.07247 -74.76397 19958 ft 324 kts 303°
2026-05-06 19:26 -10.05991 -74.78294 19960 ft 324 kts 303°
2026-05-06 19:27 -10.04735 -74.80191 19950 ft 324 kts 303°
2026-05-06 19:27 -10.03497 -74.82060 19949 ft 324 kts 303°
2026-05-06 19:27 -10.02226 -74.83980 19954 ft 324 kts 303°
2026-05-06 19:27 -10.00985 -74.85852 19949 ft 324 kts 303°
2026-05-06 19:28 -9.99723 -74.87755 19949 ft 324 kts 303°
2026-05-06 19:28 -9.98469 -74.89651 19949 ft 324 kts 303°
2026-05-06 19:28 -9.97211 -74.91546 19952 ft 324 kts 303°
2026-05-06 19:28 -9.95958 -74.93438 19953 ft 323 kts 303°
2026-05-06 19:29 -9.94702 -74.95333 19951 ft 323 kts 303°
2026-05-06 19:29 -9.93447 -74.97223 19950 ft 323 kts 303°
2026-05-06 19:29 -9.92190 -74.99121 19954 ft 324 kts 303°
2026-05-06 19:29 -9.90930 -75.01018 19956 ft 325 kts 303°
2026-05-06 19:30 -9.89665 -75.02926 19955 ft 325 kts 303°
2026-05-06 19:30 -9.88400 -75.04831 19958 ft 325 kts 303°
2026-05-06 19:30 -9.87139 -75.06734 19951 ft 325 kts 303°
2026-05-06 19:30 -9.85874 -75.08637 19950 ft 325 kts 303°
2026-05-06 19:31 -9.84609 -75.10544 19952 ft 326 kts 303°
2026-05-06 19:31 -9.83338 -75.12458 19951 ft 327 kts 303°
2026-05-06 19:31 -9.80804 -75.16273 19951 ft 328 kts 303°
2026-05-06 19:32 -9.79525 -75.18199 19953 ft 328 kts 303°
2026-05-06 19:32 -9.78251 -75.20116 19953 ft 328 kts 303°
2026-05-06 19:32 -9.76976 -75.22034 19962 ft 327 kts 303°
2026-05-06 19:32 -9.75706 -75.23946 19962 ft 326 kts 303°
2026-05-06 19:33 -9.74441 -75.25849 19964 ft 326 kts 303°
2026-05-06 19:33 -9.73174 -75.27754 19965 ft 326 kts 303°
2026-05-06 19:33 -9.71907 -75.29660 19963 ft 326 kts 303°
2026-05-06 19:33 -9.70643 -75.31561 19963 ft 325 kts 303°
2026-05-06 19:34 -9.69470 -75.33518 19963 ft 325 kts 299°
2026-05-06 19:34 -9.68340 -75.35505 19996 ft 325 kts 300°
2026-05-06 19:34 -9.67146 -75.37453 19996 ft 325 kts 301°
2026-05-06 19:34 -9.65981 -75.39416 19993 ft 325 kts 300°
2026-05-06 19:35 -9.64835 -75.41385 19994 ft 325 kts 301°
2026-05-06 19:35 -9.63653 -75.43334 19990 ft 324 kts 301°
2026-05-06 19:35 -9.62509 -75.45273 19990 ft 324 kts 300°
2026-05-06 19:35 -9.61350 -75.47235 19991 ft 324 kts 301°
2026-05-06 19:36 -9.60178 -75.49189 19990 ft 324 kts 300°
2026-05-06 19:36 -9.59020 -75.51148 20026 ft 325 kts 300°
2026-05-06 19:36 -9.57851 -75.53113 20026 ft 325 kts 301°
2026-05-06 19:36 -9.56682 -75.55073 20026 ft 326 kts 300°
2026-05-06 19:37 -9.55512 -75.57047 20024 ft 327 kts 300°
2026-05-06 19:37 -9.54336 -75.59020 20025 ft 327 kts 300°
2026-05-06 19:37 -9.53163 -75.60991 20026 ft 327 kts 300°
2026-05-06 19:37 -9.52384 -75.62302 20020 ft 328 kts 300°
2026-05-06 19:38 -9.50807 -75.64951 20045 ft 328 kts 300°
2026-05-06 19:38 -9.49629 -75.66931 20044 ft 328 kts 300°
2026-05-06 19:38 -9.48481 -75.68927 20045 ft 328 kts 298°
2026-05-06 19:38 -9.47367 -75.70939 20045 ft 327 kts 299°
2026-05-06 19:39 -9.46233 -75.72899 20041 ft 327 kts 300°
2026-05-06 19:39 -9.45095 -75.74893 20041 ft 327 kts 299°
2026-05-06 19:39 -9.43972 -75.76893 20040 ft 326 kts 299°
2026-05-06 19:39 -9.42828 -75.78881 20069 ft 328 kts 300°
2026-05-06 19:40 -9.41691 -75.80879 20072 ft 328 kts 299°
2026-05-06 19:40 -9.40556 -75.82885 20071 ft 328 kts 299°
2026-05-06 19:40 -9.39406 -75.84890 19894 ft 333 kts 299°
2026-05-06 19:40 -9.38230 -75.86961 19440 ft 343 kts 299°
2026-05-06 19:41 -9.37033 -75.89064 18996 ft 346 kts 299°
2026-05-06 19:41 -9.35824 -75.91177 18556 ft 347 kts 299°
2026-05-06 19:41 -9.34648 -75.93244 18096 ft 318 kts 298°
2026-05-06 19:41 -9.33662 -75.95151 17512 ft 298 kts 288°
2026-05-06 19:42 -9.33419 -75.97193 16884 ft 291 kts 262°
2026-05-06 19:42 -9.33734 -75.99198 16272 ft 288 kts 264°
2026-05-06 19:42 -9.33445 -76.01110 15668 ft 266 kts 292°
2026-05-06 19:42 -9.32377 -76.02523 15078 ft 245 kts 323°
2026-05-06 19:43 -9.30876 -76.03140 14492 ft 225 kts 357°
2026-05-06 19:43 -9.29413 -76.02905 13928 ft 207 kts 22°
2026-05-06 19:43 -9.28073 -76.02386 13297 ft 206 kts 24°
2026-05-06 19:43 -9.26742 -76.01850 12665 ft 205 kts 24°
2026-05-06 19:44 -9.25428 -76.01311 12047 ft 202 kts 25°
2026-05-06 19:44 -9.24102 -76.00875 11440 ft 202 kts
2026-05-06 19:44 -9.22696 -76.00930 10851 ft 201 kts 357°
2026-05-06 19:44 -9.21366 -76.00657 10281 ft 194 kts 32°
2026-05-06 19:45 -9.20266 -75.99911 9711 ft 192 kts 38°
2026-05-06 19:45 -9.19194 -75.99120 9081 ft 190 kts 39°
2026-05-06 19:45 -9.18137 -75.98339 8474 ft 186 kts 39°
2026-05-06 19:45 -9.17098 -75.97575 7868 ft 183 kts 38°
2026-05-06 19:46 -9.16006 -75.96934 7275 ft 182 kts 20°
2026-05-06 19:46 -9.14797 -75.96571 6699 ft 180 kts 17°
2026-05-06 19:46 -9.13586 -75.96222 6110 ft 177 kts 17°
2026-05-06 19:46 -9.12421 -75.95894 5515 ft 175 kts 15°
2026-05-06 19:47 -9.11251 -75.95586 4928 ft 173 kts 15°
2026-05-06 19:47 -9.10089 -75.95300 4296 ft 171 kts 11°
2026-05-06 19:47 -9.08951 -75.95189 4200 ft 157 kts
2026-05-06 19:47 -9.07886 -75.95305 4190 ft 152 kts 351°
2026-05-06 19:48 -9.06926 -75.95728 4182 ft 152 kts 328°
2026-05-06 19:48 -9.06119 -75.96426 4175 ft 154 kts 315°
2026-05-06 19:48 -9.05440 -75.97259 4166 ft 152 kts 304°
2026-05-06 19:48 -9.04863 -75.98140 4175 ft 150 kts 306°
2026-05-06 19:49 -9.04278 -75.99020 4175 ft 151 kts 304°
2026-05-06 19:49 -9.03865 -75.99982 4173 ft 152 kts 270°
2026-05-06 19:49 -9.04298 -76.00913 4182 ft 151 kts 216°
2026-05-06 19:49 -9.05267 -76.01298 4191 ft 150 kts 180°
2026-05-06 19:50 -9.06316 -76.01266 4195 ft 151 kts 179°
2026-05-06 19:50 -9.07376 -76.01305 4199 ft 153 kts 181°
2026-05-06 19:50 -9.08417 -76.01343 4203 ft 151 kts 181°
2026-05-06 19:50 -9.09466 -76.01383 4208 ft 149 kts 181°
2026-05-06 19:51 -9.10462 -76.01395 4256 ft 137 kts 175°
2026-05-06 19:51 -9.11414 -76.01297 4201 ft 137 kts 171°
2026-05-06 19:51 -9.12358 -76.01136 4125 ft 138 kts 167°
2026-05-06 19:51 -9.13298 -76.00906 3998 ft 140 kts 163°
2026-05-06 19:52 -9.14229 -76.00656 3805 ft 132 kts 162°
2026-05-06 19:52 -9.15025 -76.00398 3621 ft 110 kts 159°
2026-05-06 19:52 -9.15775 -76.00170 3411 ft 112 kts 164°
2026-05-06 19:52 -9.16518 -76.00002 3333 ft 109 kts 166°
2026-05-06 19:53 -9.17248 -75.99831 3288 ft 108 kts 164°
2026-05-06 19:53 -9.17974 -75.99644 3315 ft 107 kts 165°
2026-05-06 19:53 -9.18698 -75.99457 3308 ft 109 kts 164°
2026-05-06 19:53 -9.19448 -75.99285 3288 ft 110 kts 168°
2026-05-06 19:54 -9.20180 -75.99141 3347 ft 106 kts 168°
2026-05-06 19:54 -9.20939 -75.99044 3297 ft 113 kts 178°
2026-05-06 19:54 -9.21729 -75.99026 3229 ft 116 kts 184°
2026-05-06 19:54 -9.22527 -75.99248 3062 ft 124 kts 206°
2026-05-06 19:55 -9.23308 -75.99634 2962 ft 119 kts 200°
2026-05-06 19:55 -9.24080 -75.99860 3000 ft 115 kts 193°
2026-05-06 19:55 -9.24863 -76.00030 2948 ft 117 kts 187°
2026-05-06 19:55 -9.25673 -76.00119 2900 ft 119 kts 191°
2026-05-06 19:56 -9.26225 -76.00202 2812 ft 123 kts 187°
2026-05-06 19:56 -9.27104 -76.00298 2559 ft 131 kts 187°
2026-05-06 19:56 -9.28009 -76.00398 2255 ft 127 kts 188°
2026-05-06 19:56 -9.28799 -76.00485 2136 ft 105 kts 186°
2026-05-06 19:57 -9.29437 -76.00564 2116 ft 40 kts 91°
2026-05-06 19:57 -9.29473 -76.00562 2114 ft 0 kts 252°
2026-05-06 19:57 -9.29485 -76.00558 2116 ft 14 kts 149°
2026-05-06 19:57 -9.29604 -76.00514 2120 ft 2 kts 161°
2026-05-06 19:58 -9.29646 -76.00502 2123 ft 22 kts 168°
2026-05-06 19:58 -9.29729 -76.00494 2123 ft 7 kts 194°
2026-05-06 19:58 -9.29739 -76.00506 2124 ft 0 kts 278°